LEMUR-2-TRUTNAHD (42069 NORAD) Tracking and Keplerian Element Data

This shows tracking and keplerian element data for the satellite.

Feedback or suggestion? Click here.




ElementValue
Catalog42069
NameLEMUR-2-TRUTNAHD
Epoch Orbit7759
Epoch Day195.86172622
Epoch Year2018
RAAN198.6586
Inclination51.6276
Eccentricity0.0005008
Argument of Perigee1.8087
Mean Anonmoly358.2932
Mean Motion15.80661179
Decay Rate0.00040743
L11 42069U 98067LE 18195.86172622 .00040743 00000-0 21052-3 0 9990
L22 42069 51.6276 198.6586 0005008 1.8087 358.2932 15.80661179 77594

Live tracking and technical data element details for LEMUR-2-TRUTNAHD (NORAD 42069). LEMUR-2-TRUTNAHD can be tracked NOW for your location showing map with azimuth and elevation plus other details from your city location.

Track the satellite on the map from your city or location and see movement details for azimuth, elevation, latitude, longitude, range, height, and movement on the map or in text.







IsCatalogInMostPopularTable: catalog: 42069, numindb: 107
Update: records affected: 1



GetName: 42069 LEMUR-2-TRUTNAHD

Hit Count: updated at: Sun, 15 Jul 2018 23:06:13 GMT